DELTA 1 DEB, 7031

Orbit data source: Space-Track

DELTA 1 DEB, 7031 is space debris in SSO originally from a launch on Tue, 06 Nov 1973 UTC launched from the Air Force Western Test Range (AFWTR). Debris objects in space refer to the collection of defunct objects orbiting the Earth. Examples of debris include non-operational satellites, rocket bodies, and fragments generated from explosions, collisions, or faulty payload assembly.

Loading next visibility...
Identifier
7031, 1973-086X
Orbit
SSO
Country
Flag of USUS
Related business
Manufacturer
Unknown
Mission
Spacecraft
Bus & Motor
Unknown
Mass
Unknown
Launch date (UTC)
1973-11-06 (52 years ago)
Launch vehicle
Unknown
Launch site
Air Force Western Test Range (AFWTR)
Object type
Payload
Rocket body
Debris
Shape & HBR
Unknown shape, 0.2 m
Radar Cross Section
Medium (>0.1 m² and <1 m²)

Expand to show TLE details & history
Last TLE update: 11 hours ago

TLE from 11 hours ago
0 DELTA 1 DEB
1 07031U 73086X   25292.22012809  .00000012  00000-0  42019-3 0  9991
2 07031 101.8079 257.4613 0010479 147.1417 338.8276 12.38740066348125
Epoch: 2025-10-19T05:16Z
TLE epoch observation values (Epoch: 2025-10-19T05:16:59.066Z)
Latitude
52.52716°
Longitude
-13.97828°
Altitude
1,512.555 km
Speed
7.117 km/s
True Right ascension
06h 12m 49s
True Declination
52° 22' 37"
Sunlit
Object was in daylight at epoch
Visualization orbit readout
Latitude
Unknown
Longitude
Unknown
Altitude
Unknown
Speed
Unknown
Apparent Right ascension
Unknown
Apparent Declination
Unknown
Sunlit
N/A
Visualization observer readout
Local Sidereal Time
10:51:19
Azimuth
Unknown
Elevation
Unknown
Doppler factor
Unknown
Orbital elements
Apogee altitude
1,517.779 km
Perigee altitude
1,501.248 km
Semi-major axis
7,887.651 km
Eccentricity
0.00105
Inclination
101.8079°
RAAN
257.4613°
Arg. of periapsis
147.1417°
True anomaly
338.78418°
Mean anomaly
338.8276°
Eccentric anomaly
338.80589°
Mean motion
3.09829 °/min
Orbital period
116.19 mins
BSTAR
0.00042019
Loading maneuver chart data...
Computing Atmospheric mass density...
Loading historical data...
Loading historical data...
Loading historical data...
Loading historical data...
Loading historical data...
Loading historical data...
Loading historical data...

Documentation

Showing up to 5 results
|